DW2373 Thessaloniki GR current weather conditions

sailwx.info

Wind from 090

Air temperature 7.2° C
Dewpoint 2.9° C

Last reported at 2014-Dec-21 00:03 UTC.
Time now 2014-Dec-21 01:11 UTC

Location: N 40°31' E 022°58'.
View on Google Maps.

See reports from other nearby stations

  
Tides and Currents Weather Stations Pressure Air Temp Water Temp Dewpoint Dewpoint Depression Visibility Wind Speed Wind Dir Waves Ship Positions
date/time (UTC)wind fromknots sea level pressurealtimeterstation pressurevisibilityair tempwater tempwave heightnotes
2014-Dec-21 00:03 090 7.2
2014-Dec-20 23:03 068 7.8
2014-Dec-20 22:03 133 9.4
2014-Dec-20 21:03 330 1 gusting 6 10.0
2014-Dec-20 20:03 090 8.9
2014-Dec-20 19:03 090 9.4
2014-Dec-20 18:03 046 10.6
2014-Dec-20 17:03 355 11.1
2014-Dec-20 16:03 303 1 gusting 4 11.1
2014-Dec-20 15:03 319 12.2
2014-Dec-20 14:03 315 0 gusting 4 13.3
2014-Dec-20 13:03 311 0 gusting 5 13.9
2014-Dec-20 12:03 019 0 gusting 4 13.3
2014-Dec-20 11:03 115 1 gusting 2 12.2
2014-Dec-20 10:03 332 11.1
2014-Dec-20 09:03 310 10.0
2014-Dec-20 08:03 198 1 gusting 2 8.9
2014-Dec-20 07:03 112 6.7
2014-Dec-20 06:03 112 5.6
2014-Dec-20 05:03 068 5.6
2014-Dec-20 04:03 097 0 gusting 1 5.6
2014-Dec-20 03:03 111 6.1
2014-Dec-20 02:03 090 6.1
2014-Dec-20 01:03 076 6.7
2014-Dec-20 00:03 063 1 gusting 4 6.7
2014-Dec-19 23:03 118 7.2
2014-Dec-19 22:03 090 0 gusting 2 7.2
2014-Dec-19 21:03 069 7.8
2014-Dec-19 20:03 047 0 gusting 2 8.3
2014-Dec-19 19:03 070 1 gusting 5 8.3
2014-Dec-19 18:03 064 1 gusting 4 8.9
2014-Dec-19 17:03 060 0 gusting 2 9.4
2014-Dec-19 16:03 089 0 gusting 2 11.1
2014-Dec-19 15:03 122 13.3
2014-Dec-19 14:03 174 15.0
2014-Dec-19 13:03 269 15.0
2014-Dec-19 12:03 019 14.4
2014-Dec-19 11:03 322 0 gusting 1 12.8
2014-Dec-19 10:03 350 11.7
2014-Dec-19 09:03 248 10.6
2014-Dec-19 08:03 158 8.3
2014-Dec-19 07:03 113 0 gusting 2 7.2
2014-Dec-19 06:03 113 0 gusting 2 6.1
2014-Dec-19 05:03 069 6.1
2014-Dec-19 04:03 075 6.7
2014-Dec-19 03:03 211 6.1
2014-Dec-19 02:03 180 6.7
2014-Dec-19 01:03 135 1 gusting 4 6.7